Weather History for PATO - May, 2013

Change the Weather History Date:

Wednesday, May 22, 2013

  Actual Average Record
Temperature  
Mean Temperature 39 °F -  
Max Temperature 48 °F - - ()
Min Temperature 30 °F - - ()
Degree Days  
Heating Degree Days 26    
Moisture  
Dew Point 31 °F    
Average Humidity 68    
Maximum Humidity 92    
Minimum Humidity 50    
Precipitation  
Precipitation 0.00 in - - ()
Sea Level Pressure  
Sea Level Pressure 30.19 in    
Wind  
Wind Speed 3 mph (ESE)    
Max Wind Speed 9 mph    
Max Gust Speed -    
Visibility 10 miles    
Events      
T = Trace of Precipitation, MM = Missing Value Source: NWS Daily Summary

Daily Weather History Graph

Daily Weather History Graph

Search for Another Location

Airport or City:

Trip Planner

Search our weather history database for the weather conditions in past years. The results will help you decide how hot, cold, wet, or windy it might be!

Date:

Astronomy

May. 22, 2013 Rise Set
Actual Time 4:54 AM AKDT 10:51 PM AKDT
Civil Twilight 3:37 AM AKDT 12:09 AM AKDT
Nautical Twilight Sun does not set Sun does not set
Astronomical Twilight Sun does not set Sun does not set
Moon 7:45 PM AKDT (5/22) 3:56 AM AKDT (5/22)
Length of Visible Light 20h 32m
Length of Day
17h 56m
Waxing Gibbous, 92% of the Moon is Illuminated
May 22
Waxing Gibbous
May 24
Full
May 31
Last Quarter
Jun 8
New
Jun 16
First Quarter

Hourly Weather History & Observations

Time (AKDT) Temp. Windchill Dew Point Humidity Pressure Visibility Wind Dir Wind Speed Gust Speed Precip Events Conditions
12:53 AM 35.1 °F - 30.9 °F 85% 30.28 in 10.0 mi Calm Calm - N/A   Overcast
1:53 AM 33.1 °F - 30.0 °F 89% 30.27 in 10.0 mi Calm Calm - N/A   Partly Cloudy
2:53 AM 32.0 °F 28.7 °F 30.0 °F 92% 30.26 in 10.0 mi WNW 3.5 mph - N/A   Clear
3:53 AM 32.0 °F 28.7 °F 30.0 °F 92% 30.25 in 10.0 mi West 3.5 mph - N/A   Mostly Cloudy
4:53 AM 32.0 °F - 30.0 °F 92% 30.25 in 10.0 mi Calm Calm - N/A   Mostly Cloudy
5:53 AM 30.9 °F - 28.9 °F 92% 30.24 in 10.0 mi Calm Calm - N/A   Clear
6:53 AM 35.1 °F - 32.0 °F 89% 30.22 in 10.0 mi Calm Calm - N/A   Overcast
7:53 AM 37.9 °F - 30.9 °F 76% 30.21 in 10.0 mi Calm Calm - N/A   Overcast
8:53 AM 42.1 °F - 30.9 °F 65% 30.21 in 10.0 mi Calm Calm - N/A   Overcast
9:53 AM 42.1 °F 39.2 °F 30.9 °F 65% 30.20 in 10.0 mi East 4.6 mph - N/A   Overcast
10:53 AM 44.1 °F 40.8 °F 30.9 °F 60% 30.19 in 10.0 mi Variable 5.8 mph - N/A   Overcast
11:53 AM 46.9 °F - 30.9 °F 54% 30.18 in 10.0 mi East 6.9 mph - N/A   Overcast
12:53 PM 46.9 °F - 30.0 °F 52% 30.17 in 10.0 mi ESE 8.1 mph - N/A   Partly Cloudy
1:53 PM 48.0 °F - 30.0 °F 50% 30.16 in 10.0 mi ESE 8.1 mph - N/A   Mostly Cloudy
2:53 PM 46.9 °F - 30.0 °F 52% 30.15 in 10.0 mi East 8.1 mph - N/A   Clear
3:53 PM 48.0 °F - 30.9 °F 52% 30.14 in 10.0 mi East 8.1 mph - N/A   Mostly Cloudy
4:53 PM 48.0 °F - 30.0 °F 50% 30.14 in 10.0 mi ESE 9.2 mph - N/A   Clear
5:53 PM 48.0 °F - 30.9 °F 52% 30.13 in 10.0 mi ESE 6.9 mph - N/A   Partly Cloudy
6:53 PM 46.9 °F - 30.9 °F 54% 30.13 in 10.0 mi East 8.1 mph - N/A   Mostly Cloudy
7:53 PM 46.0 °F 43.1 °F 30.9 °F 56% 30.13 in 10.0 mi East 5.8 mph - N/A   Overcast
8:53 PM 45.0 °F 41.8 °F 30.9 °F 58% 30.14 in 10.0 mi East 5.8 mph - N/A   Overcast
9:53 PM 44.1 °F 42.5 °F 32.0 °F 63% 30.14 in 10.0 mi ESE 3.5 mph - N/A   Mostly Cloudy
10:53 PM 42.1 °F 40.2 °F 32.0 °F 67% 30.15 in 10.0 mi ESE 3.5 mph - N/A   Overcast
11:53 PM 39.9 °F - 32.0 °F 73% 30.15 in 10.0 mi Calm Calm - N/A   Overcast